| time (UTC) | temp F | wind direction | speed MPH | gust MPH | rain 1hr in | rain 24hr in | rain mn in | humidity % | barometer mb |
| 20260506081548 | 60 | 262 | 0.0 | 1.0 | 0.00 | 0.00 | 0.00 | 78 | 988.4 |
| 20260506073027 | 61 | 276 | 0.0 | 1.0 | 0.00 | 0.00 | 0.00 | 78 | 988.6 |
| 20260506071526 | 62 | 253 | 0.0 | 1.0 | 0.00 | 0.00 | 0.00 | 79 | 988.6 |
| 20260506061517 | 63 | 286 | 0.0 | 3.0 | 0.00 | 0.00 | 0.00 | 79 | 988.3 |
| 20260506044602 | 68 | 205 | 1.0 | 7.0 | 0.00 | 0.00 | 0.00 | 76 | 988.0 |
| 20260506043058 | 69 | 359 | 0.0 | 2.0 | 0.00 | 0.00 | 0.00 | 76 | 987.7 |
| 20260506041606 | 70 | 359 | 0.0 | 4.0 | 0.00 | 0.00 | 0.00 | 76 | 987.5 |
| 20260506040053 | 71 | 359 | 0.0 | 1.0 | 0.00 | 0.00 | 0.00 | 76 | 987.4 |
| 20260506034554 | 72 | 359 | 0.0 | 9.0 | 0.00 | 0.00 | 0.00 | 75 | 987.1 |
| 20260506033050 | 73 | 280 | 0.0 | 8.0 | 0.00 | 0.00 | 0.00 | 73 | 986.9 |
| 20260506031551 | 74 | 359 | 0.0 | 2.0 | 0.00 | 0.00 | 0.00 | 73 | 986.9 |
| 20260506030045 | 74 | 236 | 0.0 | 3.0 | 0.00 | 0.00 | 0.00 | 72 | 986.5 |
| 20260506024542 | 75 | 359 | 0.0 | 2.0 | 0.00 | 0.00 | 0.00 | 73 | 986.2 |
| 20260506023059 | 75 | 291 | 0.0 | 1.0 | 0.00 | 0.00 | 0.00 | 73 | 985.4 |
| 20260506021604 | 77 | 249 | 0.0 | 8.0 | 0.00 | 0.00 | 0.00 | 71 | 985.1 |
| 20260506020040 | 80 | 89 | 0.0 | 1.0 | 0.00 | 0.00 | 0.00 | 78 | 984.5 |
| 20260506014539 | 80 | 126 | 0.0 | 1.0 | 0.00 | 0.00 | 0.00 | 78 | 984.7 |
| 20260506013039 | 80 | 112 | 0.0 | 1.0 | 0.00 | 0.00 | 0.00 | 78 | 984.8 |
| 20260506011540 | 80 | 135 | 0.0 | 1.0 | 0.00 | 0.00 | 0.00 | 77 | 984.2 |
| 20260506010038 | 81 | 150 | 0.0 | 2.0 | 0.00 | 0.00 | 0.00 | 77 | 984.1 |
| 20260506004537 | 81 | 182 | 0.0 | 1.0 | 0.00 | 0.00 | 0.00 | 76 | 984.3 |
| 20260506003039 | 81 | 133 | 0.0 | 6.0 | 0.00 | 0.00 | 0.00 | 76 | 983.8 |
| 20260506001537 | 82 | 83 | 0.0 | 8.0 | 0.00 | 0.00 | 0.00 | 75 | 983.5 |
| 20260506000036 | 82 | 107 | 0.0 | 8.0 | 0.00 | 0.00 | 0.00 | 74 | 983.4 |
| 20260505234535 | 83 | 58 | 0.0 | 9.0 | 0.00 | 0.00 | 0.00 | 74 | 983.3 |
| 20260505233037 | 83 | 115 | 0.0 | 10.0 | 0.00 | 0.00 | 0.00 | 72 | 983.3 |
| 20260505231547 | 84 | 93 | 0.0 | 11.0 | 0.00 | 0.00 | 0.00 | 72 | 983.4 |
| 20260505230036 | 85 | 144 | 1.0 | 10.0 | 0.00 | 0.00 | 0.00 | 70 | 983.0 |
| 20260505224534 | 86 | 75 | 0.0 | 9.0 | 0.00 | 0.00 | 0.00 | 69 | 982.9 |
| 20260505223032 | 86 | 77 | 1.0 | 10.0 | 0.00 | 0.00 | 0.00 | 69 | 982.8 |
| 20260505221534 | 86 | 76 | 0.0 | 9.0 | 0.00 | 0.00 | 0.00 | 69 | 982.9 |
| 20260505220032 | 86 | 123 | 0.0 | 10.0 | 0.00 | 0.00 | 0.00 | 68 | 982.9 |
| 20260505214542 | 88 | 104 | 1.0 | 7.0 | 0.00 | 0.00 | 0.00 | 66 | 982.9 |
| 20260505213036 | 87 | 68 | 0.0 | 9.0 | 0.00 | 0.00 | 0.00 | 65 | 983.0 |
| 20260505211527 | 87 | 114 | 0.0 | 10.0 | 0.00 | 0.00 | 0.00 | 65 | 983.3 |
| 20260505210026 | 87 | 66 | 0.0 | 2.0 | 0.00 | 0.00 | 0.00 | 66 | 983.3 |
| 20260505204526 | 87 | 99 | 0.0 | 8.0 | 0.00 | 0.00 | 0.00 | 65 | 983.6 |
| 20260505203030 | 87 | 118 | 1.0 | 8.0 | 0.00 | 0.00 | 0.00 | 66 | 983.7 |
| 20260505201530 | 86 | 93 | 1.0 | 10.0 | 0.00 | 0.00 | 0.00 | 66 | 983.8 |
| 20260505200021 | 85 | 83 | 0.0 | 6.0 | 0.00 | 0.00 | 0.00 | 66 | 983.9 |
| 20260505194517 | 84 | 119 | 2.0 | 10.0 | 0.00 | 0.00 | 0.00 | 69 | 983.9 |
| 20260505193024 | 84 | 111 | 0.0 | 13.0 | 0.00 | 0.00 | 0.00 | 69 | 983.9 |
| 20260505191516 | 84 | 75 | 4.0 | 13.0 | 0.00 | 0.00 | 0.00 | 69 | 984.1 |
| 20260505190013 | 83 | 77 | 4.0 | 14.0 | 0.00 | 0.00 | 0.00 | 71 | 984.2 |
| 20260505184510 | 82 | 57 | 0.0 | 11.0 | 0.00 | 0.00 | 0.00 | 71 | 984.4 |
| 20260505183017 | 82 | 74 | 4.0 | 14.0 | 0.00 | 0.00 | 0.00 | 71 | 984.4 |
| 20260505181507 | 81 | 106 | 1.0 | 11.0 | 0.00 | 0.00 | 0.00 | 72 | 984.5 |
| 20260505180013 | 81 | 135 | 0.0 | 10.0 | 0.00 | 0.00 | 0.00 | 73 | 984.5 |
| 20260505174508 | 82 | 87 | 1.0 | 9.0 | 0.00 | 0.00 | 0.00 | 71 | 984.6 |
| 20260505173004 | 81 | 85 | 0.0 | 8.0 | 0.00 | 0.00 | 0.00 | 73 | 984.5 |
| 20260505171506 | 81 | 97 | 4.0 | 14.0 | 0.00 | 0.00 | 0.00 | 73 | 984.6 |
| 20260505170111 | 80 | 117 | 1.0 | 11.0 | 0.00 | 0.00 | 0.00 | 75 | 984.7 |
| 20260505164556 | 78 | 108 | 1.0 | 19.0 | 0.00 | 0.00 | 0.00 | 76 | 984.6 |
| 20260505163056 | 78 | 86 | 1.0 | 14.0 | 0.00 | 0.00 | 0.00 | 76 | 984.5 |
| 20260505161614 | 78 | 101 | 2.0 | 13.0 | 0.00 | 0.00 | 0.00 | 76 | 984.4 |
| 20260505153100 | 76 | 130 | 5.0 | 14.0 | 0.00 | 0.00 | 0.00 | 80 | 984.5 |
| 20260505151558 | 75 | 80 | 3.0 | 15.0 | 0.00 | 0.00 | 0.00 | 81 | 984.6 |
| 20260505124525 | 71 | 119 | 0.0 | 12.0 | 0.00 | 0.00 | 0.00 | 86 | 984.2 |
| 20260505123024 | 71 | 92 | 0.0 | 11.0 | 0.00 | 0.00 | 0.00 | 86 | 983.8 |
| 20260505121526 | 71 | 116 | 1.0 | 10.0 | 0.00 | 0.00 | 0.00 | 86 | 983.6 |
| 20260505120022 | 71 | 110 | 0.0 | 19.0 | 0.00 | 0.00 | 0.00 | 87 | 983.5 |
| 20260505114521 | 71 | 104 | 0.0 | 12.0 | 0.00 | 0.00 | 0.00 | 87 | 983.7 |
| 20260505113022 | 71 | 102 | 0.0 | 9.0 | 0.00 | 0.00 | 0.00 | 86 | 983.5 |
| 20260505111519 | 71 | 119 | 3.0 | 11.0 | 0.00 | 0.00 | 0.00 | 86 | 983.5 |
| 20260505101514 | 71 | 90 | 2.0 | 15.0 | 0.00 | 0.00 | 0.00 | 85 | 983.7 |
| 20260505100010 | 71 | 359 | 0.0 | 11.0 | 0.00 | 0.00 | 0.00 | 85 | 983.6 |
| 20260505094505 | 71 | 93 | 2.0 | 16.0 | 0.00 | 0.00 | 0.00 | 85 | 983.8 |
| 20260505093006 | 71 | 87 | 0.0 | 9.0 | 0.00 | 0.00 | 0.00 | 85 | 983.9 |
| 20260505091501 | 71 | 122 | 0.0 | 15.0 | 0.00 | 0.00 | 0.00 | 85 | 983.8 |
| 20260505090108 | 71 | 134 | 7.0 | 15.0 | 0.00 | 0.00 | 0.00 | 85 | 983.8 |
| 20260505084558 | 71 | 106 | 2.0 | 18.0 | 0.00 | 0.00 | 0.00 | 85 | 983.9 |
| 20260505083102 | 71 | 124 | 0.0 | 14.0 | 0.00 | 0.00 | 0.00 | 85 | 984.0 |